CW2274 Weather Reports


time (UTC)temp
F
wind
direction
speed
knots
gust
knots
rain 1hr
in
rain 24hr
in
rain mn
in
humidity
%
barometer
mb
20260906225018 98 316 4.3 11.3 0.00 0.00 0.00 27 1012.2
20260906224533 98 294 4.3 11.3 0.00 0.00 0.00 27 1012.3
20260906224013 98 275 5.2 10.4 0.00 0.00 0.00 27 1012.4
20260906223529 97 348 3.5 7.8 0.00 0.00 0.00 27 1012.3
20260906223024 97 12 3.5 8.7 0.00 0.00 0.00 27 1012.6
20260906222523 98 352 2.6 9.6 0.00 0.00 0.00 27 1012.6
20260906222016 98 293 2.6 9.6 0.00 0.00 0.00 27 1012.7
20260906221531 99 292 1.7 7.0 0.00 0.00 0.00 27 1012.7
20260906221025 98 344 1.7 7.8 0.00 0.00 0.00 27 1012.7
20260906220520 99 310 1.7 7.8 0.00 0.00 0.00 27 1012.6
20260906220047 100 284 3.5 7.8 0.00 0.00 0.00 26 1012.8
20260906215526 99 321 1.7 7.8 0.00 0.00 0.00 27 1012.8
20260906215021 99 333 3.5 7.0 0.00 0.00 0.00 26 1013.0
20260906214519 98 347 1.7 7.0 0.00 0.00 0.00 27 1012.9
20260906214013 99 308 1.7 8.7 0.00 0.00 0.00 27 1013.1
20260906213527 99 325 1.7 8.7 0.00 0.00 0.00 28 1013.3
20260906213021 99 17 2.6 6.1 0.00 0.00 0.00 26 1013.1
20260906212515 100 321 2.6 7.0 0.00 0.00 0.00 27 1013.3
20260906212029 98 342 2.6 7.0 0.00 0.00 0.00 27 1013.3
20260906211524 99 338 3.5 7.8 0.00 0.00 0.00 26 1013.3
20260906211022 100 287 2.6 7.8 0.00 0.00 0.00 27 1013.3
20260906210517 98 278 2.6 7.8 0.00 0.00 0.00 27 1013.4
20260906210044 99 7 3.5 7.8 0.00 0.00 0.00 27 1013.5
20260906205523 100 293 5.2 8.7 0.00 0.00 0.00 26 1013.5
20260906205017 98 354 2.6 7.0 0.00 0.00 0.00 27 1013.5
20260906204531 98 358 3.5 7.0 0.00 0.00 0.00 27 1013.5
20260906204026 98 309 2.6 6.1 0.00 0.00 0.00 27 1013.6
20260906203520 97 340 3.5 7.0 0.00 0.00 0.00 27 1013.7
20260906203018 97 6 2.6 7.0 0.00 0.00 0.00 28 1013.7
20260906202532 97 310 2.6 6.1 0.00 0.00 0.00 28 1013.7
20260906202026 98 294 2.6 9.6 0.00 0.00 0.00 28 1013.8
20260906201520 98 296 4.3 9.6 0.00 0.00 0.00 28 1013.9
20260906201015 98 284 3.5 10.4 0.00 0.00 0.00 28 1013.8
20260906200528 98 292 3.5 10.4 0.00 0.00 0.00 28 1013.9
20260906200035 98 309 2.6 8.7 0.00 0.00 0.00 29 1013.9
20260906195518 98 298 2.6 7.8 0.00 0.00 0.00 28 1013.8
20260906195013 98 348 1.7 9.6 0.00 0.00 0.00 28 1014.0
20260906194528 99 281 4.3 9.6 0.00 0.00 0.00 29 1014.0
20260906194023 98 292 3.5 7.8 0.00 0.00 0.00 29 1014.1
20260906193519 97 304 1.7 7.8 0.00 0.00 0.00 30 1014.3
20260906193014 97 275 3.5 7.0 0.00 0.00 0.00 29 1014.3
20260906192529 97 344 2.6 8.7 0.00 0.00 0.00 30 1014.4
20260906192025 96 273 5.2 8.7 0.00 0.00 0.00 30 1014.5
20260906191524 96 284 2.6 7.0 0.00 0.00 0.00 32 1014.6
20260906191019 95 304 2.6 8.7 0.00 0.00 0.00 31 1014.6
20260906190516 96 300 2.6 7.8 0.00 0.00 0.00 31 1014.7
20260906190043 95 292 2.6 8.7 0.00 0.00 0.00 32 1014.7
20260906185525 94 288 3.5 8.7 0.00 0.00 0.00 32 1014.7
20260906185019 94 302 2.6 7.8 0.00 0.00 0.00 33 1014.8
20260906184515 95 329 1.7 4.3 0.00 0.00 0.00 32 1014.9
20260906184014 94 342 1.7 6.1 0.00 0.00 0.00 32 1015.1
20260906183529 94 308 1.7 7.0 0.00 0.00 0.00 31 1015.1
20260906183024 94 330 2.6 7.0 0.00 0.00 0.00 32 1015.1
20260906182520 94 306 2.6 6.1 0.00 0.00 0.00 32 1015.3
20260906182015 94 297 1.7 4.3 0.00 0.00 0.00 33 1015.3
20260906181531 94 343 1.7 4.3 0.00 0.00 0.00 32 1015.3
20260906181026 94 302 1.7 5.2 0.00 0.00 0.00 32 1015.3
20260906180524 95 302 1.7 6.1 0.00 0.00 0.00 31 1015.5
20260906180031 94 304 2.6 6.1 0.00 0.00 0.00 33 1015.5
20260906175513 94 344 2.6 6.1 0.00 0.00 0.00 31 1015.6
20260906175027 93 308 0.9 4.3 0.00 0.00 0.00 34 1015.6
20260906174522 92 315 1.7 4.3 0.00 0.00 0.00 33 1015.8
20260906174017 93 307 0.9 7.0 0.00 0.00 0.00 35 1015.6
20260906173532 92 291 3.5 7.0 0.00 0.00 0.00 35 1015.6
20260906173028 92 328 0.9 4.3 0.00 0.00 0.00 36 1015.6
20260906172526 92 328 0.9 5.2 0.00 0.00 0.00 37 1015.6
20260906172021 90 329 1.7 5.2 0.00 0.00 0.00 37 1015.7
20260906171516 89 319 0.9 2.6 0.00 0.00 0.00 38 1015.7
20260906171031 88 319 0.9 2.6 0.00 0.00 0.00 40 1015.6
20260906170527 88 320 0.9 2.6 0.00 0.00 0.00 41 1015.6
20260906170035 88 320 1.7 2.6 0.00 0.00 0.00 41 1015.8
20260906165515 87 321 0.9 4.3 0.00 0.00 0.00 41 1015.9
20260906165015 88 321 0.9 4.3 0.00 0.00 0.00 43 1015.8
20260906164529 87 321 1.7 4.3 0.00 0.00 0.00 41 1015.8
20260906164025 86 337 0.9 2.6 0.00 0.00 0.00 44 1015.9
20260906163520 85 337 0.9 2.6 0.00 0.00 0.00 46 1015.8
20260906163015 85 337 0.9 1.7 0.00 0.00 0.00 46 1015.7
20260906162530 84 337 0.0 1.7 0.00 0.00 0.00 47 1015.8
20260906162026 84 337 0.9 1.7 0.00 0.00 0.00 47 1015.7
20260906161526 84 337 0.9 1.7 0.00 0.00 0.00 48 1015.8
20260906161021 84 338 0.9 1.7 0.00 0.00 0.00 48 1015.8
20260906160516 83 338 0.9 1.7 0.00 0.00 0.00 49 1015.9
20260906160044 83 338 0.9 1.7 0.00 0.00 0.00 50 1015.9
20260906155525 83 338 0.0 1.7 0.00 0.00 0.00 51 1015.9
20260906155021 82 338 0.9 1.7 0.00 0.00 0.00 51 1015.9
20260906154516 82 338 0.9 2.6 0.00 0.00 0.00 51 1015.8
20260906154016 81 338 0.9 2.6 0.00 0.00 0.00 51 1016.0
20260906153531 81 338 0.9 1.7 0.00 0.00 0.00 51 1015.9
20260906153026 81 338 0.9 2.6 0.00 0.00 0.00 51 1016.0
20260906152522 81 338 1.7 2.6 0.00 0.00 0.00 50 1016.1
20260906152018 81 338 0.9 3.5 0.00 0.00 0.00 51 1016.0
20260906151514 81 338 1.7 3.5 0.00 0.00 0.00 51 1016.0
20260906151030 81 337 2.6 3.5 0.00 0.00 0.00 51 1016.0
20260906150525 81 302 1.7 2.6 0.00 0.00 0.00 51 1016.1
20260906150038 80 292 1.7 1.7 0.00 0.00 0.00 53 1016.1
20260906145518 80 292 0.0 0.9 0.00 0.00 0.00 54 1016.0
20260906145014 80 292 0.9 0.9 0.00 0.00 0.00 57 1016.0
20260906144529 79 292 0.0 0.9 0.00 0.00 0.00 56 1016.0
20260906144025 79 292 0.0 0.9 0.00 0.00 0.00 57 1015.9
20260906143519 79 292 0.0 1.7 0.00 0.00 0.00 56 1016.0
20260906143014 79 292 0.0 1.7 0.00 0.00 0.00 58 1015.9
20260906142513 79 292 0.9 1.7 0.00 0.00 0.00 55 1015.9
20260906142029 79 292 0.0 0.9 0.00 0.00 0.00 60 1016.0
20260906141525 78 292 0.0 0.9 0.00 0.00 0.00 60 1015.8
20260906141020 78 292 0.0 0.9 0.00 0.00 0.00 61 1015.6
20260906140516 78 292 0.0 0.9 0.00 0.00 0.00 60 1015.7
20260906140043 77 292 0.9 1.7 0.00 0.00 0.00 60 1015.6
20260906135524 76 292 0.0 1.7 0.00 0.00 0.00 62 1015.6
20260906135024 77 292 0.9 2.6 0.00 0.00 0.00 59 1015.5
20260906134519 77 292 1.7 2.6 0.00 0.00 0.00 57 1015.5
20260906134014 77 292 0.9 1.7 0.00 0.00 0.00 58 1015.5
20260906133528 77 292 0.9 1.7 0.00 0.00 0.00 59 1015.4
20260906133023 77 292 0.9 1.7 0.00 0.00 0.00 58 1015.5
20260906132518 77 292 0.9 1.7 0.00 0.00 0.00 56 1015.4
20260906132014 77 292 0.9 1.7 0.00 0.00 0.00 56 1015.4
20260906131513 76 292 1.7 1.7 0.00 0.00 0.00 57 1015.4
20260906131028 77 292 0.9 2.6 0.00 0.00 0.00 55 1015.4
20260906130522 77 292 0.9 2.6 0.00 0.00 0.00 56 1015.4
20260906130029 77 292 1.7 1.7 0.00 0.00 0.00 58 1015.4
20260906125530 77 292 0.9 1.7 0.00 0.00 0.00 57 1015.4
20260906125024 76 292 1.7 1.7 0.00 0.00 0.00 57 1015.4
20260906124519 77 292 0.9 1.7 0.00 0.00 0.00 57 1015.3
20260906124015 77 292 0.9 1.7 0.00 0.00 0.00 57 1015.2
20260906123514 77 292 0.0 1.7 0.00 0.00 0.00 56 1015.2
20260906123030 77 292 0.0 1.7 0.00 0.00 0.00 55 1015.2
20260906122525 77 292 0.9 1.7 0.00 0.00 0.00 56 1015.1
20260906122020 77 292 0.9 1.7 0.00 0.00 0.00 55 1015.1
20260906121515 77 292 0.0 0.0 0.00 0.00 0.00 54 1015.0
20260906121031 78 292 0.0 0.9 0.00 0.00 0.00 54 1014.9
20260906120526 78 292 0.0 1.7 0.00 0.00 0.00 53 1014.8
20260906120037 78 292 0.9 1.7 0.00 0.00 0.00 53 1014.8
20260906115518 78 292 0.9 1.7 0.00 0.00 0.00 52 1014.7
20260906115014 79 292 0.0 2.6 0.00 0.00 0.00 52 1014.7
20260906114528 79 292 0.0 2.6 0.00 0.00 0.00 52 1014.7
20260906114024 79 292 0.9 1.7 0.00 0.00 0.00 51 1014.6
20260906113520 79 292 0.9 2.6 0.00 0.00 0.00 51 1014.6
20260906113015 79 292 0.9 2.6 0.00 0.00 0.00 50 1014.6
20260906112514 79 292 0.9 1.7 0.00 0.00 0.00 51 1014.5
20260906112029 79 292 0.9 1.7 0.00 0.00 0.00 51 1014.5
20260906111524 79 292 0.9 1.7 0.00 0.00 0.00 50 1014.5
20260906111020 79 292 0.9 1.7 0.00 0.00 0.00 51 1014.4
20260906110616 79 292 0.9 2.6 0.00 0.00 0.00 51 1014.5
20260906110038 79 292 0.9 2.6 0.00 0.00 0.00 50 1014.5
20260906105520 80 292 1.7 2.6 0.00 0.00 0.00 50 1014.5
20260906105015 80 292 1.7 2.6 0.00 0.00 0.00 50 1014.4
20260906104530 80 292 1.7 2.6 0.00 0.00 0.00 50 1014.3
20260906104029 80 292 0.9 1.7 0.00 0.00 0.00 49 1014.5
20260906103524 80 292 0.9 1.7 0.00 0.00 0.00 49 1014.5
20260906103020 79 292 0.9 2.6 0.00 0.00 0.00 50 1014.5
20260906102515 79 292 0.9 2.6 0.00 0.00 0.00 50 1014.5
20260906102030 80 292 0.9 1.7 0.00 0.00 0.00 50 1014.5
20260906101526 80 292 0.9 1.7 0.00 0.00 0.00 49 1014.5
20260906101022 80 292 0.9 1.7 0.00 0.00 0.00 48 1014.4
20260906100521 80 292 0.9 1.7 0.00 0.00 0.00 48 1014.5
20260906100028 80 292 0.9 1.7 0.00 0.00 0.00 47 1014.4
20260906095528 80 292 0.9 1.7 0.00 0.00 0.00 47 1014.4
20260906095023 80 292 0.9 1.7 0.00 0.00 0.00 47 1014.4
20260906094517 80 292 0.9 2.6 0.00 0.00 0.00 46 1014.4
20260906094012 80 292 0.9 3.5 0.00 0.00 0.00 46 1014.4
20260906093527 80 292 1.7 2.6 0.00 0.00 0.00 46 1014.4
20260906093021 80 292 1.7 2.6 0.00 0.00 0.00 45 1014.5
20260906092519 80 292 1.7 2.6 0.00 0.00 0.00 45 1014.4
20260906092014 80 292 1.7 2.6 0.00 0.00 0.00 45 1014.3
20260906091528 81 292 1.7 2.6 0.00 0.00 0.00 45 1014.4
20260906091023 81 292 0.9 2.6 0.00 0.00 0.00 44 1014.4
20260906090518 81 292 0.9 2.6 0.00 0.00 0.00 44 1014.4
20260906090044 80 292 1.7 2.6 0.00 0.00 0.00 45 1014.4
20260906085524 81 292 1.7 2.6 0.00 0.00 0.00 45 1014.4
20260906085023 81 292 0.9 2.6 0.00 0.00 0.00 44 1014.5
20260906084517 81 292 1.7 2.6 0.00 0.00 0.00 43 1014.5
20260906084032 82 292 1.7 2.6 0.00 0.00 0.00 42 1014.6
20260906083523 82 292 0.9 2.6 0.00 0.00 0.00 42 1014.4
20260906083017 82 292 1.7 2.6 0.00 0.00 0.00 42 1014.5
20260906082512 82 292 1.7 2.6 0.00 0.00 0.00 42 1014.4
20260906082026 83 292 1.7 2.6 0.00 0.00 0.00 41 1014.5
20260906081520 83 292 1.7 2.6 0.00 0.00 0.00 41 1014.5
20260906081019 83 292 1.7 2.6 0.00 0.00 0.00 41 1014.6
20260906080514 83 292 0.9 2.6 0.00 0.00 0.00 41 1014.6
20260906080040 83 292 1.7 2.6 0.00 0.00 0.00 41 1014.7
20260906075520 84 291 0.9 3.5 0.00 0.00 0.00 40 1014.6
20260906075015 84 291 1.7 5.2 0.00 0.00 0.00 40 1014.6
20260906074530 84 290 1.7 5.2 0.00 0.00 0.00 40 1014.6
20260906074024 84 290 2.6 3.5 0.00 0.00 0.00 40 1014.8
20260906073523 85 290 1.7 3.5 0.00 0.00 0.00 39 1014.8
20260906073017 85 290 1.7 6.1 0.00 0.00 0.00 39 1014.8
20260906072511 85 291 2.6 6.1 0.00 0.00 0.00 39 1014.7
20260906072026 85 292 1.7 3.5 0.00 0.00 0.00 39 1014.8
20260906071520 85 292 2.6 3.5 0.00 0.00 0.00 40 1014.8
20260906071015 85 293 1.7 4.3 0.00 0.00 0.00 39 1014.8
20260906070529 85 292 2.6 6.1 0.00 0.00 0.00 39 1014.8
20260906070036 85 292 2.6 6.1 0.00 0.00 0.00 40 1014.9
20260906065521 85 287 2.6 6.1 0.00 0.00 0.00 39 1014.7
20260906065016 85 279 3.5 6.1 0.00 0.00 0.00 40 1014.8
20260906064531 85 286 3.5 6.1 0.00 0.00 0.00 40 1014.8
20260906064025 85 280 3.5 6.1 0.00 0.00 0.00 40 1014.9
20260906063519 85 283 3.5 6.1 0.00 0.00 0.00 40 1014.9
20260906063013 85 288 2.6 5.2 0.00 0.00 0.00 39 1014.9
20260906062528 85 288 2.6 6.1 0.00 0.00 0.00 39 1014.9
20260906062026 86 288 2.6 6.1 0.00 0.00 0.00 39 1014.9
20260906061520 86 292 2.6 4.3 0.00 0.00 0.00 39 1014.9
20260906061015 86 294 2.6 6.1 0.00 0.00 0.00 39 1014.9
20260906060529 85 281 2.6 6.1 0.00 0.00 0.00 39 1014.9
20260906060036 86 277 3.5 6.1 0.00 0.00 0.00 39 1014.9
20260906055515 86 291 2.6 6.1 0.00 0.00 0.00 40 1015.0
20260906055029 86 294 1.7 4.3 0.00 0.00 0.00 40 1015.0
20260906054524 86 294 1.7 4.3 0.00 0.00 0.00 40 1015.0
20260906054022 86 295 2.6 4.3 0.00 0.00 0.00 40 1015.1
20260906053515 86 296 1.7 4.3 0.00 0.00 0.00 40 1015.2
20260906053029 86 296 1.7 4.3 0.00 0.00 0.00 40 1015.2
20260906052523 86 295 1.7 4.3 0.00 0.00 0.00 40 1015.2
20260906052017 86 294 1.7 4.3 0.00 0.00 0.00 40 1015.2
20260906051531 86 292 2.6 4.3 0.00 0.00 0.00 40 1015.3
20260906051025 87 293 1.7 4.3 0.00 0.00 0.00 40 1015.3
20260906050523 87 294 2.6 4.3 0.00 0.00 0.00 40 1015.3
20260906050030 87 295 2.6 3.5 0.00 0.00 0.00 40 1015.4
20260906045529 87 296 2.6 3.5 0.00 0.00 0.00 40 1015.3
20260906045024 87 297 1.7 4.3 0.00 0.00 0.00 40 1015.3
20260906044518 87 297 2.6 4.3 0.00 0.00 0.00 41 1015.4
20260906044013 87 323 2.6 4.3 0.00 0.00 0.00 42 1015.3
20260906043528 87 323 0.9 4.3 0.00 0.00 0.00 42 1015.2
20260906043023 87 323 1.7 4.3 0.00 0.00 0.00 42 1015.3
20260906042522 86 325 2.6 4.3 0.00 0.00 0.00 43 1015.3
20260906042016 86 326 1.7 4.3 0.00 0.00 0.00 43 1015.2
20260906041529 86 326 1.7 4.3 0.00 0.00 0.00 44 1015.2
20260906041023 87 326 1.7 3.5 0.00 0.00 0.00 43 1015.1
20260906040518 87 326 2.6 3.5 0.00 0.00 0.00 42 1015.1
20260906040045 87 326 1.7 3.5 0.00 0.00 0.00 42 1015.1
20260906035525 87 326 0.9 2.6 0.00 0.00 0.00 42 1015.1
20260906035023 87 326 1.7 3.5 0.00 0.00 0.00 42 1015.1
20260906034517 87 326 0.0 0.9 0.00 0.00 0.00 42 1015.1
20260906034031 87 326 0.0 1.7 0.00 0.00 0.00 41 1015.1
20260906033525 88 326 0.0 1.7 0.00 0.00 0.00 41 1015.0
20260906033019 88 326 0.9 2.6 0.00 0.00 0.00 40 1014.8
20260906032533 89 326 0.9 2.6 0.00 0.00 0.00 39 1014.8
20260906032027 89 326 0.9 2.6 0.00 0.00 0.00 39 1014.7
20260906031521 89 326 0.9 2.6 0.00 0.00 0.00 39 1014.8
20260906031020 89 326 0.9 2.6 0.00 0.00 0.00 38 1014.6
20260906030514 89 326 0.9 1.7 0.00 0.00 0.00 38 1014.6
20260906030041 90 326 0.9 2.6 0.00 0.00 0.00 38 1014.5
20260906025520 90 326 1.7 2.6 0.00 0.00 0.00 37 1014.4
20260906025014 90 325 1.7 2.6 0.00 0.00 0.00 37 1014.2
20260906024529 90 326 0.9 2.6 0.00 0.00 0.00 37 1014.3
20260906024023 90 326 1.7 3.5 0.00 0.00 0.00 37 1014.3
20260906023521 90 326 0.9 1.7 0.00 0.00 0.00 36 1014.3
20260906023016 90 326 0.9 1.7 0.00 0.00 0.00 36 1014.2
20260906022531 90 327 0.9 2.6 0.00 0.00 0.00 36 1014.1
20260906022026 90 327 0.9 2.6 0.00 0.00 0.00 36 1014.0
20260906021520 91 327 0.9 1.7 0.00 0.00 0.00 35 1014.0
20260906021015 90 327 0.9 2.6 0.00 0.00 0.00 35 1014.1
20260906020529 91 327 0.9 2.6 0.00 0.00 0.00 35 1014.0
20260906020035 91 327 0.9 3.5 0.00 0.00 0.00 35 1014.0
20260906015520 91 347 0.0 3.5 0.00 0.00 0.00 34 1014.0
20260906015014 92 348 0.9 3.5 0.00 0.00 0.00 34 1014.1
20260906014529 92 350 0.9 5.2 0.00 0.00 0.00 34 1014.0
20260906014023 92 351 1.7 5.2 0.00 0.00 0.00 33 1014.0
20260906013518 92 339 1.7 4.3 0.00 0.00 0.00 34 1014.0
20260906013032 92 329 1.7 4.3 0.00 0.00 0.00 34 1013.9
20260906012526 92 331 1.7 4.3 0.00 0.00 0.00 34 1013.9
20260906012025 93 298 1.7 7.8 0.00 0.00 0.00 33 1014.0
20260906011519 93 291 1.7 7.8 0.00 0.00 0.00 33 1014.1
20260906011013 93 296 1.7 6.1 0.00 0.00 0.00 34 1014.0
20260906010528 93 302 1.7 4.3 0.00 0.00 0.00 33 1014.0
20260906010034 94 310 1.7 9.6 0.00 0.00 0.00 33 1014.1
20260906005514 94 282 4.3 9.6 0.00 0.00 0.00 33 1014.1
20260906005028 94 6 2.6 8.7 0.00 0.00 0.00 33 1014.0
20260906004521 94 303 2.6 5.2 0.00 0.00 0.00 33 1013.9
20260906004018 94 339 2.6 7.0 0.00 0.00 0.00 33 1014.0
20260906003533 95 303 2.6 7.8 0.00 0.00 0.00 33 1013.9
20260906003026 95 311 1.7 7.8 0.00 0.00 0.00 33 1014.0
20260906002520 95 290 2.6 7.8 0.00 0.00 0.00 33 1013.9
20260906002014 95 344 1.7 6.1 0.00 0.00 0.00 33 1014.0
20260906001528 95 308 1.7 6.1 0.00 0.00 0.00 33 1013.8
20260906001023 96 344 2.6 7.0 0.00 0.00 0.00 32 1014.0
20260906000521 95 315 2.6 7.0 0.00 0.00 0.00 33 1014.0
20260906000028 96 355 1.7 8.7 0.00 0.00 0.00 33 1013.9
20260905235527 96 310 3.5 8.7 0.00 0.00 0.00 32 1013.9
20260905235021 96 289 2.6 8.7 0.00 0.00 0.00 32 1013.8
20260905234515 96 292 2.6 7.0 0.00 0.00 0.00 33 1013.9
20260905234029 96 282 3.5 7.0 0.00 0.00 0.00 32 1013.8
20260905233523 96 335 1.7 7.0 0.00 0.00 0.00 32 1013.8
20260905233018 97 311 1.7 11.3 0.00 0.00 0.00 32 1013.9
20260905232517 96 337 3.5 9.6 0.00 0.00 0.00 32 1013.9
20260905232031 96 337 1.7 8.7 0.00 0.00 0.00 31 1013.9
20260905231526 97 330 3.5 7.8 0.00 0.00 0.00 31 1013.9
20260905231020 96 331 3.5 8.7 0.00 0.00 0.00 32 1014.1
20260905230514 96 357 1.7 8.7 0.00 0.00 0.00 33 1014.1
20260905230040 97 319 1.7 8.7 0.00 0.00 0.00 32 1014.1
20260905225520 97 280 3.5 8.7 0.00 0.00 0.00 31 1014.1